Regional Weather Roundup
Issued by NWS

Home | Current Version | Previous Version | Graphics & Text | Print | Product List | Glossary On
Versions: 1 2 3 4 5 6 7 8 9 10 11 12 13 14 15 16 17 18 19 20 21 22 23 24 25 26 27 28 29 30 31 32 33 34 35 36 37 38 39 40 41 42 43 44 45 46 47 48 49 50
000
ASUS43 KLOT 301103
RWRIL

ILLINOIS REGIONAL WEATHER ROUNDUP
NATIONAL WEATHER SERVICE CHICAGO/ROMEOVILLE IL
600 AM CDT SAT APR 30 2016

NOTE: "FAIR" INDICATES FEW OR NO CLOUDS BELOW 12,000 FEET WITH NO
SIGNIFICANT WEATHER AND/OR OBSTRUCTIONS TO VISIBILITY.

* THESE STATIONS ARE NOT UNDER NWS QUALITY CONTROL. THEY ALSO MAY NOT
  REPORT WEATHER SUCH AS PRECIPITATION OR FOG.

ILZ001-002-007-009-015-016-024-301200-
NORTHWEST ILLINOIS

CITY           SKY/WX    TMP DP  RH WIND       PRES   REMARKS
MOLINE         CLOUDY    46  42  86 E14       29.95F FOG
STERLING*      CLOUDY    45  41  87 E13       30.01S
$$

ILZ003-004-008-010-011-017-018-301200-
NORTH CENTRAL ILLINOIS

CITY           SKY/WX    TMP DP  RH WIND       PRES   REMARKS
ROCKFORD       CLOUDY    45  38  76 E13       30.06S
FREEPORT*      CLOUDY    42  39  87 E10       30.05F
ROCHELLE*      CLOUDY    44  41  89 E9        30.04S
DE KALB*       CLOUDY    44  41  89 E9        30.05R
$$

ILZ005-006-012>014-019>023-301200-
NORTHEAST ILLINOIS

CITY           SKY/WX    TMP DP  RH WIND       PRES   REMARKS
CHICAGO-OHARE  CLOUDY    45  41  86 E8        30.06R
CHICAGO-MIDWAY CLOUDY    48  41  76 E10       30.06R FOG
AURORA         MOCLDY    46  41  82 E13       30.04S
LANSING*       CLOUDY    47  42  84 E7        30.05S
WAUKEGAN       CLOUDY    43  39  86 NE10      30.07S
DUPAGE AIRPORT CLOUDY    45  40  82 E9        30.05R
WHEELING       MOCLDY    45  40  82 E7        30.07S
MORRIS*        CLOUDY    47  43  87 E7        30.02F
NORTHERLY ISL    N/A     45  42  89 E12         N/A
NORTHERLY ISL    N/A     45  42  89 E12         N/A
$$

LMZ740>746-301200-
SOUTHERN LAKE MICHIGAN

STATION/POSITION SKY/WX   TEMP    WIND        PRES    VSBY  WAVE
                          AIR SEA DIR/SP/G                  HT/PER
                          (F)     (DEG/KT/KT) (MB)    (MI)  (FT/S)
SOUTHERN BUOY              42 40   70/ 10/ 10 1019.4          1
HARRISON CRIB              45      70/ 17/ 18   N/A
BURNHAM HARBOR             45      60/ 11/ 13   N/A
CALUMET HARBOR             47      70/ 10/ 13 1017.0F
BURNS HARBOR               47      70/  8/ 12 1018.3F
MICHIGAN CITY              46      60/  9/ 10   N/A
ST. JOSEPH                 47 47                N/A           1/ 4
$$

ILZ025>027-034>036-040-047-049-050-058-095>099-301200-
WEST-CENTRAL ILLINOIS

CITY           SKY/WX    TMP DP  RH WIND       PRES   REMARKS
QUINCY         LGT RAIN  50  48  93 E16       29.82F FOG
MACOMB*        LGT RAIN  47  46  99 E17       29.92F
PITTSFIELD*    LGT RAIN  53  52  97 E12       29.85F
$$

ILZ028>032-037-038-041>044-048-051>054-059>061-301200-
CENTRAL ILLINOIS

CITY           SKY/WX    TMP DP  RH WIND       PRES   REMARKS
BLOOMINGTON    LGT RAIN  47  47 100 E15       29.96F FOG
DECATUR        LGT RAIN  52  49  89 E13       29.93F FOG
PEORIA         CLOUDY    47  44  90 E18       29.94F FOG
LACON*         RAIN      46  43  90 E10       29.98F
LINCOLN*       LGT RAIN  51  50  96 E6        29.93F
SPRINGFIELD    LGT RAIN  53  51  93 E10       29.90F FOG
TAYLORVILLE    NOT AVBL
$$

ILZ033-039-045-046-055>057-062-063-301200-
EAST-CENTRAL ILLINOIS

CITY           SKY/WX    TMP DP  RH WIND       PRES   REMARKS
CHAMPAIGN      LGT RAIN  51  49  92 E15       29.94F FOG
MATTOON        HVY RAIN  53  51  93 E8        29.92F FOG
$$

ILZ079-100>102-301200-
SOUTHWEST ILLINOIS

CITY           SKY/WX    TMP DP  RH WIND       PRES   REMARKS
ALTON          DRIZZLE   56  55  97 E9        29.84F
BELLEVILLE     LGT RAIN  57  57 100 E9        29.83F
CAHOKIA*       LGT RAIN  59  56  89 SE8       29.82F
SPARTA*        LGT RAIN  57  56  97 E13       29.86S
$$

ILZ064>066-069>071-074>076-080>082-084>086-088>090-092>094-301200-
SOUTH-CENTRAL ILLINOIS

CITY           SKY/WX    TMP DP  RH WIND       PRES   REMARKS
CARBONDALE     RAIN      58  56  93 SE5       29.87S FOG
CAIRO*         HVY RAIN  60  60 100 E7        29.86F
EFFINGHAM*     LGT RAIN  55  55 100 E8        29.93S
MT. VERNON     CLOUDY    57  54  88 CALM      29.90R
SALEM*         RAIN      58  56  92 NE5       29.88F
$$

ILZ067-068-072-073-078-083-087-091-301200-
SOUTHEAST ILLINOIS

CITY           SKY/WX    TMP DP  RH WIND       PRES   REMARKS
LAWRENCEVILLE  CLOUDY    58  55  90 E8        29.92F
FLORA*         HVY RAIN  59  57  94 NE6       29.91F
HARRISBURG*    RAIN      59  58  96 S5        29.91R
ROBINSON*      LGT RAIN  55  54  95 NE7       29.93F
CARMI*         RAIN      59  56  91 NE5       29.88F
$$

ABBREVIATIONS USED IN REMARKS
   TC - TEMPERATURE IN CELSIUS
  WCI - WIND CHILL INDEX
   HX - HEAT INDEX
  VSB - VISIBILITY
$$




USA.gov is the U.S. government's official web portal to all federal, state and local government web resources and services.